[[{"header":{"parameterUnit":"m.s-1","parameterCategory":1,"la1":30.2991,"la2":30.254,"lo1":-89.0895,"lo2":-89.0444,"dy":0.0017,"dx":0.0017,"nx":28,"ny":28,"refTime":"2026-02-15T03:00:00:Z","depth":0,"parameterNumber":2,"parameterNumberName":"U-component_of_WINDS"},"data":[0,0,0,0,0,0,0,0,0,0,0,0,0,0,0,0,0,0,0,0,0,0,0,0,0,0,0,0,0,0,0,0,0,0,0,0,0,0,0,0,0,0,0,0,0,0,0,0,0,0,0,0,0,0,0,0,0,0,-0.798,-0.798,0,-0.8033,-0.8034,-0.8035,-0.8049,-0.8049,-0.8049,-0.8048,-0.8102,-0.8104,-0.8106,0,0,0,0,0,0,0,0,0,0,0,0,0,-0.7888,-0.789,-0.798,-0.798,-0.7981,-0.8033,-0.8034,-0.8035,-0.8049,-0.8049,-0.8049,-0.8048,-0.8102,-0.8104,-0.8106,0,0,0,0,0,0,0,0,0,0,0,0,0,-0.7934,-0.789,-0.798,-0.7995,-0.7996,-0.8033,-0.8034,-0.8035,-0.8049,-0.8049,-0.8048,-0.8048,-0.8101,-0.8103,-0.8106,-0.8131,0,0,-0.8114,-0.8115,0,0,0,0,0,0,0,0,-0.7931,-0.7937,-0.7992,-0.7994,-0.7996,-0.8034,-0.8022,-0.8067,-0.8049,-0.8029,-0.8048,-0.8048,-0.808,-0.8084,-0.8095,-0.8134,-0.8136,-0.8114,-0.8116,-0.8117,-0.8118,0,0,0,0,0,0,0,-0.7928,-0.7935,-0.8001,-0.7992,-0.7995,-0.7998,-0.8004,-0.803,-0.8056,-0.8031,-0.8032,-0.8038,-0.8081,-0.8093,-0.8097,-0.8137,-0.8114,-0.8116,-0.8118,-0.8119,-0.8199,-0.82,0,0,0,0,0,0,-0.7922,-0.7932,-0.7999,-0.8003,-0.7962,-0.8,-0.8007,-0.8022,-0.8056,-0.8061,-0.8039,-0.8039,-0.8088,-0.8094,-0.8099,-0.8131,-0.8117,-0.8119,-0.8121,-0.8199,-0.82,-0.82,0,0,0,0,0,0,-0.792,-0.7928,-0.7997,-0.7968,-0.7977,-0.8002,-0.802,-0.8024,-0.8036,-0.8062,-0.8067,-0.8046,-0.8088,-0.8095,-0.8123,-0.8133,-0.812,-0.8123,-0.8198,-0.8199,-0.82,-0.8196,0,0,0,0,0,0,-0.7918,-0.7927,-0.7937,-0.7968,-0.7978,-0.8021,-0.802,-0.8025,-0.804,-0.8041,-0.807,-0.8075,-0.8088,-0.8119,-0.8126,-0.8136,-0.8125,-0.8197,-0.8199,-0.82,-0.8195,-0.8196,-0.8197,0,0,0,0,0,-0.7914,-0.7934,-0.7938,-0.7946,-0.7991,-0.8022,-0.8028,-0.8043,-0.8041,-0.8051,-0.8068,-0.8074,-0.8131,-0.8122,-0.813,-0.8141,-0.8197,-0.8198,-0.82,-0.8195,-0.8196,-0.8197,0,0,0,0,0,0,-0.7903,-0.7938,-0.7943,-0.7973,-0.7994,-0.8024,-0.8038,-0.8044,-0.8067,-0.8066,-0.8085,-0.8091,-0.8118,-0.8132,-0.8122,-0.8167,-0.8164,-0.8167,-0.8158,-0.8159,-0.816,-0.8157,-0.8127,0,0,0,0,0,-0.7905,-0.7927,-0.7955,-0.7979,-0.799,-0.8012,-0.8025,-0.8036,-0.8059,-0.8068,-0.8087,-0.8108,-0.8131,-0.8146,-0.8168,-0.8197,-0.8204,-0.8208,-0.8209,-0.821,-0.8213,-0.823,-0.8232,-0.8205,-0.8205,-0.8204,0,0,-0.7907,-0.7929,-0.7941,-0.7977,-0.7995,-0.8018,-0.8019,-0.8043,-0.8059,-0.8071,-0.8099,-0.8114,-0.8139,-0.8168,-0.8182,-0.8181,-0.8222,-0.8212,-0.8212,-0.8215,-0.8231,-0.8234,-0.8236,-0.8205,-0.8205,-0.8205,0,0,-0.7923,-0.7942,-0.7964,-0.7982,-0.8009,-0.8023,-0.8029,-0.8058,-0.8068,-0.8097,-0.8106,-0.8126,-0.8165,-0.8183,-0.8197,-0.822,-0.8226,-0.8226,-0.8232,-0.8249,-0.8251,-0.8253,-0.8262,-0.8264,-0.8228,-0.8228,-0.8228,0,-0.7923,-0.7957,-0.7974,-0.7997,-0.8013,-0.8025,-0.8047,-0.8064,-0.8096,-0.8107,-0.8105,-0.8155,-0.8172,-0.8206,-0.8211,-0.8222,-0.8229,-0.8223,-0.8249,-0.8251,-0.8253,-0.8262,-0.8265,-0.8228,-0.8228,-0.8228,-0.8228,0,-0.7956,-0.7979,-0.7994,-0.8026,-0.8043,-0.8066,-0.8086,-0.8101,-0.811,-0.8124,-0.8153,-0.8175,-0.8203,-0.8211,-0.8219,-0.8246,-0.8244,-0.8246,-0.8242,-0.8256,-0.8264,-0.8268,-0.8228,-0.8228,-0.8228,-0.8228,0,0,-0.7967,-0.8008,-0.8013,-0.8028,-0.8059,-0.8078,-0.8101,-0.8128,-0.8141,-0.8163,-0.8183,-0.8215,-0.8217,-0.8233,-0.8244,-0.8258,-0.8275,-0.8257,-0.8258,-0.826,-0.8306,-0.8305,-0.8309,-0.8279,-0.828,-0.828,-0.8304,0,-0.7987,-0.803,-0.8045,-0.808,-0.8102,-0.8114,-0.8134,-0.8155,-0.817,-0.819,-0.8206,-0.8229,-0.8229,-0.8239,-0.8253,-0.827,-0.8285,-0.8268,-0.8298,-0.8299,-0.8292,-0.8313,-0.8313,-0.8334,-0.8307,-0.8308,-0.8308,0,-0.8017,-0.804,-0.8077,-0.8106,-0.8116,-0.8134,-0.816,-0.818,-0.8204,-0.8213,-0.8231,-0.8241,-0.8265,-0.826,-0.8294,-0.8283,-0.8296,-0.8306,-0.8307,-0.8311,-0.8305,-0.8318,-0.8341,-0.8345,-0.8314,-0.8313,-0.8313,0,-0.8022,-0.8062,-0.809,-0.8103,-0.8137,-0.8149,-0.8164,-0.8187,-0.8203,-0.8225,-0.8236,-0.8261,-0.8275,-0.8294,-0.831,-0.8304,-0.8343,-0.8339,-0.8351,-0.8351,-0.8359,-0.8359,-0.8385,-0.8366,-0.8366,-0.8366,-0.8366,0,-0.8044,-0.8066,-0.8093,-0.811,-0.8136,-0.8153,-0.8178,-0.8193,-0.8214,-0.8234,-0.8245,-0.8264,-0.8284,-0.8305,-0.8317,-0.8344,-0.835,-0.8358,-0.8361,-0.8358,-0.8357,-0.8367,-0.8366,-0.8367,-0.8367,-0.8367,-0.8366,0,-0.8054,-0.8073,-0.8104,-0.8134,-0.8142,-0.8159,-0.8185,-0.8202,-0.8216,-0.8242,-0.8248,-0.8272,-0.8297,-0.8315,-0.8347,-0.8356,-0.8384,-0.8387,-0.8377,-0.8378,-0.839,-0.8389,-0.8425,-0.8431,-0.8407,-0.8407,-0.8407,0,-0.8067,-0.8084,-0.8116,-0.8131,-0.8146,-0.8169,-0.8185,-0.8203,-0.8219,-0.8248,-0.8262,-0.8288,-0.831,-0.835,-0.8369,-0.8394,-0.8398,-0.8409,-0.8402,-0.8397,-0.8399,-0.8398,-0.84,-0.841,-0.841,-0.841,-0.841,0,-0.8088,-0.8097,-0.812,-0.8146,-0.8165,-0.8187,-0.8208,-0.822,-0.8241,-0.8259,-0.8285,-0.8302,-0.8336,-0.8362,-0.8389,-0.8403,-0.8411,-0.8412,-0.8417,-0.8413,-0.8407,-0.8411,-0.838,-0.8411,-0.8411,-0.8411,-0.8411,-0.8411,-0.81,-0.8117,-0.8142,-0.8168,-0.8186,-0.8206,-0.8224,-0.8241,-0.8263,-0.8293,-0.8302,-0.8329,-0.8353,-0.839,-0.8405,-0.8426,-0.8426,-0.8432,-0.8433,-0.8435,-0.8435,-0.8403,-0.8431,-0.8431,-0.8431,-0.8431,-0.8431,0,-0.8122,-0.8139,-0.8163,-0.8193,-0.8213,-0.8219,-0.8243,-0.8259,-0.8284,-0.8305,-0.8327,-0.8357,-0.8383,-0.8404,-0.843,-0.8443,-0.8447,-0.845,-0.8449,-0.8453,-0.8434,-0.8428,-0.8446,-0.8446,-0.8446,-0.8446,-0.8446,-0.8446,-0.8136,-0.8165,-0.8177,-0.8214,-0.8231,-0.8259,-0.8272,-0.8291,-0.8308,-0.8342,-0.8363,-0.8377,-0.8399,-0.8427,-0.8451,-0.8456,-0.8465,-0.8467,-0.8474,-0.8456,-0.8454,-0.8452,-0.8447,-0.8469,-0.8469,-0.8491,-0.8491,-0.8491]},{"header":{"parameterUnit":"m.s-1","parameterCategory":1,"la1":30.2991,"la2":30.254,"lo1":-89.0895,"lo2":-89.0444,"dy":0.0017,"dx":0.0017,"nx":28,"ny":28,"refTime":"2026-02-15T03:00:00:Z","depth":0,"parameterNumber":3,"parameterNumberName":"V-component_of_WINDS"},"data":[0,0,0,0,0,0,0,0,0,0,0,0,0,0,0,0,0,0,0,0,0,0,0,0,0,0,0,0,0,0,0,0,0,0,0,0,0,0,0,0,0,0,0,0,0,0,0,0,0,0,0,0,0,0,0,0,0,0,-2.6336,-2.6336,0,-2.6401,-2.6402,-2.6402,-2.6414,-2.6413,-2.6413,-2.6412,-2.6478,-2.648,-2.6482,0,0,0,0,0,0,0,0,0,0,0,0,0,-2.6222,-2.6224,-2.6336,-2.6337,-2.6337,-2.6401,-2.6402,-2.6403,-2.6414,-2.6413,-2.6412,-2.6412,-2.6477,-2.648,-2.6483,0,0,0,0,0,0,0,0,0,0,0,0,0,-2.6277,-2.6224,-2.6336,-2.6351,-2.6353,-2.6401,-2.6402,-2.6403,-2.6414,-2.6413,-2.6412,-2.6411,-2.6476,-2.648,-2.6483,-2.652,0,0,-2.6493,-2.6495,0,0,0,0,0,0,0,0,-2.6274,-2.6282,-2.6348,-2.635,-2.6352,-2.6398,-2.6386,-2.6442,-2.6414,-2.6391,-2.6412,-2.6411,-2.6452,-2.6457,-2.6471,-2.6523,-2.6526,-2.6494,-2.6496,-2.6497,-2.6498,0,0,0,0,0,0,0,-2.627,-2.6279,-2.6361,-2.6349,-2.6351,-2.6354,-2.6361,-2.6396,-2.6425,-2.6393,-2.6394,-2.6401,-2.6453,-2.6468,-2.6473,-2.6527,-2.6494,-2.6497,-2.6499,-2.65,-2.6615,-2.6616,0,0,0,0,0,0,-2.6264,-2.6275,-2.6359,-2.6363,-2.631,-2.6357,-2.6365,-2.6384,-2.6425,-2.643,-2.6402,-2.6401,-2.6463,-2.6469,-2.6475,-2.6524,-2.6497,-2.65,-2.6502,-2.6614,-2.6616,-2.6617,0,0,0,0,0,0,-2.6261,-2.6271,-2.6357,-2.632,-2.6331,-2.636,-2.6382,-2.6386,-2.6401,-2.6432,-2.6437,-2.6412,-2.6462,-2.6471,-2.651,-2.6526,-2.6502,-2.6505,-2.6613,-2.6615,-2.6616,-2.6619,0,0,0,0,0,0,-2.6258,-2.627,-2.6284,-2.632,-2.6333,-2.639,-2.6382,-2.6388,-2.6407,-2.6407,-2.6443,-2.6448,-2.6462,-2.6505,-2.6513,-2.653,-2.6508,-2.6612,-2.6614,-2.6616,-2.6618,-2.6621,-2.6623,0,0,0,0,0,-2.6254,-2.6282,-2.6285,-2.6295,-2.6351,-2.6391,-2.6398,-2.6415,-2.6408,-2.6423,-2.6443,-2.6446,-2.6523,-2.6508,-2.6518,-2.6537,-2.6611,-2.6613,-2.6616,-2.6617,-2.662,-2.6623,0,0,0,0,0,0,-2.6247,-2.6287,-2.6291,-2.6331,-2.6358,-2.6393,-2.6412,-2.6417,-2.6446,-2.6445,-2.6464,-2.6472,-2.651,-2.6527,-2.6511,-2.6576,-2.6566,-2.6571,-2.6564,-2.6568,-2.657,-2.6566,-2.651,0,0,0,0,0,-2.625,-2.6279,-2.6312,-2.6345,-2.6358,-2.6383,-2.64,-2.6411,-2.6439,-2.645,-2.6473,-2.65,-2.653,-2.6549,-2.6579,-2.662,-2.6629,-2.6638,-2.664,-2.6642,-2.6646,-2.6672,-2.6677,-2.6624,-2.6624,-2.6624,0,0,-2.6257,-2.6282,-2.6299,-2.6344,-2.6366,-2.6396,-2.6392,-2.6423,-2.6446,-2.6454,-2.6494,-2.6511,-2.6543,-2.6584,-2.6603,-2.6599,-2.6663,-2.6645,-2.6647,-2.665,-2.6675,-2.668,-2.6684,-2.6626,-2.6626,-2.6625,0,0,-2.6285,-2.6306,-2.6337,-2.6359,-2.6393,-2.6409,-2.6417,-2.6451,-2.6464,-2.6503,-2.6511,-2.6538,-2.6589,-2.6612,-2.663,-2.6669,-2.6674,-2.6678,-2.6692,-2.6717,-2.6721,-2.6725,-2.6741,-2.6746,-2.6681,-2.6681,-2.6681,0,-2.629,-2.6335,-2.6352,-2.6384,-2.6404,-2.6414,-2.6446,-2.6467,-2.6507,-2.6521,-2.6516,-2.6582,-2.6604,-2.6651,-2.6661,-2.6675,-2.6685,-2.6674,-2.6719,-2.6723,-2.6727,-2.6742,-2.6748,-2.6682,-2.6682,-2.6681,-2.6681,0,-2.634,-2.6371,-2.6392,-2.6433,-2.6455,-2.6486,-2.6509,-2.6529,-2.6538,-2.6556,-2.6597,-2.6623,-2.6659,-2.6671,-2.6679,-2.672,-2.6717,-2.6715,-2.6706,-2.6732,-2.6747,-2.6753,-2.6682,-2.6682,-2.6682,-2.6682,0,0,-2.6365,-2.6416,-2.6424,-2.6443,-2.6481,-2.6506,-2.6539,-2.6574,-2.6593,-2.662,-2.6649,-2.6693,-2.6692,-2.6713,-2.6724,-2.6745,-2.6777,-2.6741,-2.6742,-2.6749,-2.6826,-2.6829,-2.6836,-2.678,-2.6781,-2.6782,-2.6825,0,-2.64,-2.6459,-2.6476,-2.6526,-2.6556,-2.6567,-2.6595,-2.6622,-2.6639,-2.6668,-2.6686,-2.6718,-2.6713,-2.6726,-2.6748,-2.6769,-2.6793,-2.6765,-2.6808,-2.6809,-2.6802,-2.6843,-2.6846,-2.6885,-2.683,-2.6831,-2.6832,0,-2.6448,-2.6478,-2.6532,-2.6568,-2.6581,-2.6607,-2.6642,-2.6669,-2.67,-2.6711,-2.6735,-2.6744,-2.6779,-2.6767,-2.6817,-2.6798,-2.6816,-2.6829,-2.6831,-2.6837,-2.6823,-2.6852,-2.6897,-2.6904,-2.6841,-2.684,-2.6839,0,-2.6464,-2.6518,-2.6558,-2.6574,-2.6616,-2.6634,-2.6653,-2.6683,-2.6704,-2.6735,-2.6749,-2.6783,-2.6802,-2.6828,-2.6847,-2.6836,-2.6896,-2.6885,-2.6907,-2.6907,-2.692,-2.692,-2.6971,-2.6929,-2.6929,-2.6929,-2.6928,0,-2.6502,-2.6534,-2.6566,-2.659,-2.6628,-2.6647,-2.6683,-2.6702,-2.673,-2.6758,-2.6769,-2.6795,-2.6818,-2.6848,-2.6863,-2.6903,-2.6911,-2.6921,-2.6925,-2.6922,-2.6921,-2.6935,-2.6934,-2.693,-2.693,-2.693,-2.6929,0,-2.6527,-2.6549,-2.6593,-2.663,-2.6641,-2.6667,-2.6699,-2.6723,-2.6741,-2.6778,-2.6787,-2.6815,-2.6851,-2.6872,-2.6917,-2.6927,-2.6973,-2.6974,-2.6963,-2.6965,-2.6987,-2.6985,-2.7051,-2.7062,-2.701,-2.7011,-2.7011,0,-2.655,-2.6576,-2.6617,-2.6637,-2.6656,-2.6689,-2.6711,-2.6731,-2.6754,-2.6792,-2.6812,-2.6849,-2.688,-2.6937,-2.6962,-2.6997,-2.7001,-2.7021,-2.7006,-2.7002,-2.7004,-2.7003,-2.7007,-2.7024,-2.7025,-2.7025,-2.7025,0,-2.6591,-2.6601,-2.6632,-2.6669,-2.6695,-2.6724,-2.6753,-2.6769,-2.6795,-2.682,-2.6857,-2.6881,-2.6928,-2.6965,-2.7003,-2.7022,-2.7029,-2.703,-2.7038,-2.7035,-2.7028,-2.7035,-2.6972,-2.7029,-2.7028,-2.7028,-2.7028,-2.7028,-2.6617,-2.6641,-2.6675,-2.671,-2.6734,-2.6762,-2.6788,-2.6809,-2.6841,-2.6882,-2.6891,-2.6931,-2.6963,-2.7014,-2.7035,-2.7067,-2.7063,-2.7073,-2.7076,-2.7079,-2.7081,-2.7022,-2.7073,-2.7073,-2.7073,-2.7073,-2.7073,0,-2.666,-2.6682,-2.6715,-2.6756,-2.6784,-2.6788,-2.6821,-2.6844,-2.688,-2.6909,-2.694,-2.6984,-2.702,-2.7048,-2.7086,-2.7106,-2.711,-2.7115,-2.7115,-2.712,-2.7081,-2.7072,-2.7112,-2.7112,-2.7112,-2.7112,-2.7112,-2.7112,-2.6686,-2.6728,-2.6742,-2.6797,-2.6819,-2.6859,-2.6878,-2.6903,-2.6927,-2.6976,-2.7007,-2.7025,-2.7054,-2.7094,-2.7128,-2.7136,-2.715,-2.7155,-2.7163,-2.7126,-2.7122,-2.7118,-2.711,-2.7157,-2.7158,-2.72,-2.72,-2.7201]}]]